This demonstration page uses our WeatherBlox Daily Observations layout. Learn more.

39.92423, -83.80882

Hourly Observations for June 23, 2020

Temp ( °F °C ) Dew Point ( °F °C ) Humidity (%) Winds ( mph kmh ) Pressure ( in mb ) Visibility ( mi km ) Precip ( " mm )
12:56 am 00:56 Clear 75 23.9 69 20.6 82 82 S 6 9 29.79 1009 10 16.0934 0.02 0.508
1:56 am 01:56 Mostly Cloudy with Light Rain 70 21.1 69 20.6 97 97 SW 17 28 29.78 1009 10 16.0934 0.01 0.254
2:56 am 02:56 Mostly Cloudy with Rain 69 20.6 69 20.6 100 100 S 6 9 29.76 1008 9 14.48406 0.51 12.954
3:56 am 03:56 Cloudy with Light Rain 69 20.6 69 20.6 100 100 S 7 11 29.73 1007 10 16.0934 0.001 0.001
4:40 am 04:40 Cloudy with Light Rain 70 21 70 21 100 100 S 6 9 29.69 1005 7 11.26538 0.001 0.001
4:49 am 04:49 Cloudy 70 21 70 21 100 100 SSE 7 11 29.68 1005 10 16.0934 0.001 0.001
4:56 am 04:56 Cloudy 69 20.6 69 20.6 100 100 SSE 7 11 29.69 1005 10 16.0934 0.001 0.001
5:04 am 05:04 Cloudy 70 21 70 21 100 100 SSE 7 11 29.68 1005 10 16.0934 0 0
5:14 am 05:14 Cloudy 70 21 70 21 100 100 S 7 11 29.68 1005 10 16.0934 0 0
5:56 am 05:56 Cloudy 70 21.1 70 21.1 100 100 SSW 9 15 29.69 1005 10 16.0934 0 0
6:12 am 06:12 Cloudy 70 21 70 21 100 100 SSW 9 15 29.68 1005 10 16.0934 0 0
6:56 am 06:56 Cloudy 70 21.1 70 21.1 100 100 SSW 14 22 29.68 1005 10 16.0934 0 0
7:30 am 07:30 Cloudy 70 21 70 21 100 100 SSW 12 19 29.66 1004 10 16.0934 0 0
7:37 am 07:37 Cloudy with Light Rain 70 21 70 21 100 100 SSW 10 17 29.66 1004 7 11.26538 0.001 0.001
7:53 am 07:53 Cloudy with Light Rain 70 21 70 21 100 100 SSW 13 20 29.66 1004 2.5 4.02335 0.001 0.001
7:56 am 07:56 Cloudy with Light Rain 70 21.1 70 21.1 100 100 SW 13 20 29.67 1005 3 4.82802 0.001 0.001
8:20 am 08:20 Cloudy 70 21 70 21 100 100 SW 12 19 29.66 1004 10 16.0934 0.001 0.001
8:33 am 08:33 Cloudy 70 21 70 21 100 100 WSW 13 20 29.66 1004 10 16.0934 0.001 0.001
8:56 am 08:56 Cloudy 70 21.1 70 21.1 100 100 WSW 13 20 29.67 1005 10 16.0934 0.001 0.001
9:38 am 09:38 Cloudy 70 21 70 21 100 100 WNW 12 19 29.68 1005 10 16.0934 0 0
9:56 am 09:56 Cloudy 72 22.2 71 21.7 97 97 WNW 15 24 29.69 1005 10 16.0934 0 0
10:04 am 10:04 Cloudy 72 22 70 21 94 94 WNW 15 24 29.67 1005 10 16.0934 0 0
10:53 am 10:53 Cloudy 72 22 68 20 88 88 WNW 16 26 29.68 1005 10 16.0934 0 0
10:56 am 10:56 Cloudy 72 22.2 67 19.4 84 84 WNW 17 28 29.7 1006 10 16.0934 0 0
11:21 am 11:21 Mostly Cloudy 73 23 66 19 78 78 W 16 26 29.69 1005 10 16.0934 0 0
11:56 am 11:56 Cloudy 75 23.9 67 19.4 76 76 W 14 22 29.71 1006 10 16.0934 0 0
12:56 pm 12:56 Cloudy 74 23.3 66 18.9 76 76 W 14 22 29.72 1006 10 16.0934 0 0
1:05 pm 13:05 Cloudy 73 23 64 18 74 74 WNW 14 22 29.7 1006 10 16.0934 0 0
1:15 pm 13:15 Cloudy 73 23 66 19 78 78 W 13 20 29.7 1006 10 16.0934 0 0
1:24 pm 13:24 Cloudy 73 23 64 18 74 74 WNW 17 28 29.7 1006 10 16.0934 0 0
1:34 pm 13:34 Cloudy 75 24 66 19 74 74 WNW 15 24 29.7 1006 10 16.0934 0 0
1:56 pm 13:56 Mostly Cloudy 76 24.4 67 19.4 74 74 W 22 35 29.72 1006 10 16.0934 0 0
2:56 pm 14:56 Mostly Cloudy 77 25 66 18.9 69 69 W 16 26 29.71 1006 10 16.0934 0 0
3:56 pm 15:56 Mostly Cloudy 76 24.4 65 18.3 69 69 WNW 13 20 29.72 1006 10 16.0934 0 0
4:56 pm 16:56 Mostly Sunny 77 25 61 16.1 58 58 WNW 18 30 29.73 1007 10 16.0934 0 0
5:56 pm 17:56 Partly Cloudy 75 23.9 59 15 58 58 WNW 18 30 29.74 1007 10 16.0934 0 0
6:56 pm 18:56 Mostly Sunny 75 23.9 58 14.4 55 55 WNW 15 24 29.75 1008 10 16.0934 0.05 1.27
7:56 pm 19:56 Mostly Sunny 73 22.8 56 13.3 55 55 WNW 13 20 29.77 1008 10 16.0934 0.05 1.27
8:56 pm 20:56 Sunny 70 21.1 58 14.4 66 66 WNW 10 17 29.8 1009 10 16.0934 0.01 0.254
9:56 pm 21:56 Mostly Clear 66 18.9 60 15.6 81 81 WNW 3 6 29.81 1009 10 16.0934 1.01 25.654
10:56 pm 22:56 Clear 63 17.2 59 15 87 87 SW 5 7 29.82 1010 10 16.0934 0.14 3.556
11:56 pm 23:56 Clear 62 16.7 59 15 90 90 SW 5 7 29.83 1010 10 16.0934 0.44 11.176

Powered by AerisWeather